Regional Weather Roundup
Issued by NWS

Home | Current Version | Previous Version | Graphics & Text | Print | Product List | Glossary On
Versions: 1 2 3 4 5 6 7 8 9 10 11 12 13 14 15 16 17 18 19 20 21 22 23 24 25 26 27 28 29 30 31 32 33 34 35 36 37 38 39 40 41 42 43 44 45 46 47 48 49 50
000
ASUS45 KCYS 220610
RWRWY

WYOMING REGIONAL WEATHER ROUNDUP
NATIONAL WEATHER SERVICE CHEYENNE WY
1200 AM MDT SUN OCT 22 2017

NOTE:  "FAIR" INDICATES FEW OR NO CLOUDS BELOW 12,000 FEET
WITH NO SIGNIFICANT WEATHER AND/OR OBSTRUCTIONS TO VISIBILITY.

WYZ001-220700-
YELLOWSTONE NATIONAL PARK

CITY           SKY/WX    TMP DP  RH WIND       PRES   REMARKS
LK YELLOWSTONE   N/A     26  24  92 W8        30.20R WCI  18
6HR MIN TEMP:  25; 6HR MAX TEMP:  27; 6HR PCP:  0.02;

W YELLOWSTONE  NOT AVBL

$$
WYZ002>013-054>058-071-098>099-220700-
NORTHERN WYOMING

CITY           SKY/WX    TMP DP  RH WIND       PRES   REMARKS
JACKSON        CLOUDY    33  24  69 S12       30.23S WCI  24
CODY           FAIR      43  23  45 SW24G36   30.02R
GREYBULL       FAIR      38  17  42 SE7       30.03R WCI  33
6HR MIN TEMP:  37; 6HR MAX TEMP:  50;

WORLAND        FAIR      29  19  66 CALM      30.03R
6HR MIN TEMP:  28; 6HR MAX TEMP:  48;

SHERIDAN       FAIR      31  17  56 S5        29.94S WCI  26
6HR MIN TEMP:  29; 6HR MAX TEMP:  48;

BUFFALO        FAIR      35   9  33 SW7       29.97S WCI  29
6HR MIN TEMP:  33; 6HR MAX TEMP:  48;

GILLETTE       FAIR      31  15  52 S6        29.97S WCI  25
6HR MIN TEMP:  26; 6HR MAX TEMP:  43;

HULETT         FAIR      34  18  51 S8        29.97S WCI  27
NEWCASTLE      FAIR      30  18  59 NE3       30.00F

$$
WYZ014>020-022>026-101>103-220700-
CENTRAL WYOMING

CITY           SKY/WX    TMP DP  RH WIND       PRES   REMARKS
BIG PINEY      CLOUDY    25  16  68 N5        30.26S WCI  19
6HR MIN TEMP:  22; 6HR MAX TEMP:  37;

PINEDALE       CLOUDY    28  19  69 W6        30.27R WCI  22
DUBOIS         FAIR      32  19  59 NW30G40   30.10S WCI  18
LANDER         FAIR      35  16  45 S3        30.08R
6HR MIN TEMP:  32; 6HR MAX TEMP:  46;

RIVERTON       FAIR      35  18  49 W10       30.08S WCI  27
6HR MIN TEMP:  35; 6HR MAX TEMP:  44;

CASPER         FAIR      38  14  37 SW12G21   30.06F WCI  30
6HR MIN TEMP:  31; 6HR MAX TEMP:  44;

DOUGLAS        FAIR      34  15  46 W8        30.05F WCI  27
6HR MIN TEMP:  32; 6HR MAX TEMP:  44;


$$
WYZ021-027>030-104>119-220700-
SOUTHERN WYOMING

CITY           SKY/WX    TMP DP  RH WIND       PRES   REMARKS
EVANSTON       FAIR      32  17  54 SW10      30.32R WCI  24
6HR MIN TEMP:  29; 6HR MAX TEMP:  38;

FORT BRIDGER   FAIR      33  18  52 W13       30.33R WCI  24
ROCK SPRINGS   FAIR      35  11  36 W14G23    30.27S WCI  26
6HR MIN TEMP:  34; 6HR MAX TEMP:  39;

DIXON          MOCLDY    30  23  76 N3        30.33R
RAWLINS        FAIR      33  12  41 SW18G26   30.17F WCI  22
6HR MIN TEMP:  32; 6HR MAX TEMP:  40;

SARATOGA       FAIR      30  19  64 S8        30.24S WCI  23
LARAMIE        FAIR      31  14  49 W14       30.16S WCI  21
6HR MIN TEMP:  28; 6HR MAX TEMP:  35;

CHEYENNE       FAIR      40  14  34 W25G38    30.10F WCI  29
6HR MIN TEMP:  36; 6HR MAX TEMP:  42;

TORRINGTON     FAIR      45  13  27 W12G20    30.05F
6HR MIN TEMP:  37; 6HR MAX TEMP:  50;

PINE BLUFFS    FAIR      23  18  80 MISG      30.12S

$$



USA.gov is the U.S. government's official web portal to all federal, state and local government web resources and services.